Location: Br�ttisellen
(47.4227°N, 8.6287°E)
Time: 23:16:04
(UTC+00:00)

Cosmos 1300 - Pass Details

Date: 09 April 2020
Orbit: 511 x 515 km, 82.5° (Epoch: 26 May)

Event Time Altitude Azimuth Distance (km) Brightness Sun altitude
Exits shadow 18:42:46 - 141° (SE) 2,196 5.4 -6.7°
Reaches altitude 10° 18:44:14 10° 128° (SE) 1,740 4.8 -6.9°
Maximum altitude 18:46:46 17° 87° (E) 1,351 4.3 -7.3°
Drops below altitude 10° 18:49:19 10° 45° (NE) 1,751 5.2 -7.7°
Sets 18:52:00 0° 25° (NNE) 2,645 6.3 -8.1°
